KB9MLJ Weather Reports


Display with metric or nautical units.
time (UTC)temp
F
wind
direction
speed
MPH
gust
MPH
rain 1hr
in
rain 24hr
in
rain mn
in
humidity
%
barometer
mb
20260503202944 64 146 13.0 18.0 0.00 0.01 0.01 45 1009.5
20260503202443 64 187 11.0 17.0 0.00 0.01 0.01 46 1009.2
20260503201941 63 210 15.0 20.0 0.00 0.01 0.01 47 1009.5
20260503201438 63 190 11.0 16.0 0.00 0.01 0.01 47 1009.5
20260503200935 63 166 20.0 24.0 0.00 0.01 0.01 45 1009.9
20260503200432 64 195 11.0 15.0 0.00 0.01 0.01 45 1009.9
20260503195928 64 155 12.0 16.0 0.00 0.01 0.01 44 1009.9
20260503195426 64 206 16.0 24.0 0.00 0.01 0.01 45 1009.5
20260503194922 64 147 17.0 24.0 0.00 0.01 0.01 46 1009.9
20260503194419 63 172 11.0 15.0 0.00 0.01 0.01 48 1010.2
20260503193914 63 151 7.0 8.0 0.00 0.01 0.01 48 1010.2
20260503193410 62 188 12.0 16.0 0.00 0.01 0.01 47 1010.2
20260503192906 62 182 19.0 26.0 0.00 0.01 0.01 47 1010.2
20260503192402 62 166 11.0 18.0 0.00 0.01 0.01 49 1010.5
20260503191858 63 164 8.0 13.0 0.00 0.01 0.01 48 1010.2
20260503191356 63 200 11.0 13.0 0.00 0.01 0.01 48 1010.2
20260503190852 63 205 22.0 27.0 0.00 0.01 0.01 48 1010.5
20260503190349 63 179 10.0 17.0 0.00 0.01 0.01 51 1010.5
20260503185846 62 165 13.0 18.0 0.00 0.01 0.01 52 1010.9
20260503185343 62 203 17.0 26.0 0.00 0.01 0.01 52 1010.5
20260503184842 62 172 6.0 8.0 0.00 0.01 0.01 53 1011.2
20260503184339 61 187 15.0 18.0 0.00 0.01 0.01 52 1010.9
20260503183834 61 184 11.0 15.0 0.00 0.01 0.01 52 1011.2
20260503183332 62 176 16.0 20.0 0.00 0.01 0.01 50 1011.7
20260503182829 62 168 13.0 18.0 0.00 0.01 0.01 51 1011.7
20260503182329 61 162 13.0 18.0 0.00 0.01 0.01 51 1011.7
20260503181825 60 152 10.0 11.0 0.00 0.01 0.01 54 1012.0
20260503181322 59 159 14.0 18.0 0.00 0.01 0.01 55 1012.3
20260503180818 59 161 11.0 15.0 0.00 0.01 0.01 56 1012.0
20260503180317 58 183 6.0 7.0 0.00 0.01 0.01 58 1012.7
20260503175813 58 156 9.0 11.0 0.00 0.01 0.01 58 1012.7
20260503175311 58 187 7.0 13.0 0.00 0.01 0.01 58 1013.0
20260503174806 57 262 3.0 6.0 0.00 0.01 0.01 60 1013.3
20260503174304 56 182 8.0 13.0 0.00 0.01 0.01 61 1013.3
20260503173800 55 177 9.0 11.0 0.00 0.01 0.01 63 1013.3
20260503173255 55 147 7.0 8.0 0.00 0.01 0.01 67 1013.7
20260503172753 54 257 9.0 10.0 0.00 0.01 0.01 65 1013.7
20260503172250 54 182 7.0 9.0 0.00 0.01 0.01 71 1014.0
20260503171746 54 267 3.0 3.0 0.00 0.01 0.01 69 1014.0
20260503171243 54 158 5.0 7.0 0.00 0.01 0.01 68 1014.0
20260503170740 54 204 3.0 5.0 0.00 0.01 0.01 68 1014.0
20260503170237 54 184 3.0 3.0 0.00 0.01 0.01 67 1014.0
20260503160159 54 249 2.0 2.0 0.00 0.00 0.00 67 1015.0
20260503150629 55 221 11.0 15.0 0.00 0.00 0.00 62 1015.0
20260503150125 55 240 4.0 6.0 0.00 0.00 0.00 63 1014.7
20260503131019 51 211 2.0 2.0 0.00 0.00 0.00 66 1015.7
20260503130516 51 228 9.0 15.0 0.00 0.00 0.00 66 1015.7
20260503110413 44 146 3.0 5.0 0.00 0.00 0.00 70 1015.4
20260503090304 44 248 5.0 6.0 0.00 0.00 0.00 65 1015.7
20260503081231 45 248 4.0 6.0 0.00 0.00 0.00 62 1015.7
20260503080726 45 244 1.0 1.0 0.00 0.00 0.00 62 1016.1
20260503080224 45 247 2.0 3.0 0.00 0.00 0.00 62 1015.7
20260503072700 44 224 2.0 2.0 0.00 0.00 0.00 65 1016.1
20260503072157 44 220 3.0 3.0 0.00 0.00 0.00 66 1016.1
20260503071654 44 211 1.0 2.0 0.00 0.00 0.00 65 1016.1
20260503071151 44 220 1.0 1.0 0.00 0.00 0.00 65 1016.1
20260503070648 44 172 2.0 2.0 0.00 0.00 0.00 66 1016.1
20260503070146 44 211 0.0 1.0 0.00 0.00 0.00 66 1016.1
20260503060110 43 229 1.0 1.0 0.00 0.00 0.00 67 1016.8
20260503055101 43 228 1.0 1.0 0.00 0.00 0.00 68 1016.8
20260503054557 43 228 1.0 2.0 0.00 0.00 0.00 67 1016.8
20260503054054 43 227 1.0 1.0 0.00 0.00 0.00 67 1016.8
20260503053552 44 227 0.0 0.0 0.00 0.00 0.00 66 1016.8
20260503053050 44 227 0.0 0.0 0.00 0.00 0.00 65 1017.2
20260503052547 44 228 1.0 1.0 0.00 0.00 0.00 65 1017.2
20260503052043 44 226 1.0 1.0 0.00 0.00 0.00 64 1017.2
20260503051538 45 210 1.0 2.0 0.00 0.00 0.00 63 1017.2
20260503051036 45 211 1.0 1.0 0.00 0.00 0.00 63 1017.2
20260503050531 45 219 1.0 1.0 0.00 0.00 0.00 63 1017.2
20260503050030 45 219 1.0 1.0 0.00 0.00 0.00 62 1017.2
20260503045527 45 220 1.0 1.0 0.00 0.00 0.00 61 1016.8
20260503045024 45 208 2.0 2.0 0.00 0.00 0.00 61 1017.2
20260503044520 46 220 1.0 2.0 0.00 0.00 0.00 60 1016.8
20260503044018 46 219 1.0 2.0 0.00 0.00 0.00 61 1017.2
20260503043514 46 218 0.0 1.0 0.00 0.00 0.00 60 1016.8
20260503043010 46 215 0.0 1.0 0.00 0.00 0.00 59 1017.2
20260503042508 46 229 2.0 2.0 0.00 0.00 0.00 59 1017.2
20260503042004 46 210 1.0 1.0 0.00 0.00 0.00 59 1017.2
20260503041501 47 214 1.0 2.0 0.00 0.00 0.00 59 1017.2
20260503040959 46 208 3.0 5.0 0.00 0.00 0.00 59 1017.2
20260503040455 47 223 1.0 2.0 0.00 0.00 0.00 60 1017.2
20260503035952 46 219 2.0 2.0 0.00 0.00 0.00 60 1017.2
20260503035449 46 221 1.0 1.0 0.00 0.00 0.00 62 1017.2
20260503034947 46 223 1.0 2.0 0.00 0.00 0.00 62 1017.2
20260503034444 46 223 1.0 2.0 0.00 0.00 0.00 62 1017.5
20260503033941 46 223 1.0 1.0 0.00 0.00 0.00 61 1017.2
20260503033438 47 223 1.0 1.0 0.00 0.00 0.00 60 1017.2
20260503032936 47 223 3.0 3.0 0.00 0.00 0.00 59 1017.2
20260503032435 47 223 2.0 2.0 0.00 0.00 0.00 59 1017.2
20260503031932 48 223 0.0 1.0 0.00 0.00 0.00 58 1017.2
20260503031430 47 224 3.0 3.0 0.00 0.00 0.00 59 1017.5
20260503030926 48 224 1.0 1.0 0.00 0.00 0.00 58 1017.2
20260503030423 48 224 0.0 1.0 0.00 0.00 0.00 58 1017.2
20260503025920 48 224 1.0 1.0 0.00 0.00 0.00 58 1017.2
20260503025416 48 224 1.0 2.0 0.00 0.00 0.00 58 1017.2
20260503024914 48 224 1.0 1.0 0.00 0.00 0.00 59 1017.5
20260503024411 48 224 1.0 1.0 0.00 0.00 0.00 59 1017.2
20260503023908 48 224 1.0 1.0 0.00 0.00 0.00 59 1017.5
20260503023405 48 224 1.0 1.0 0.00 0.00 0.00 57 1017.2
20260503022902 49 225 1.0 2.0 0.00 0.00 0.00 57 1017.2
20260503022401 49 229 2.0 2.0 0.00 0.00 0.00 56 1017.5
20260503021858 49 230 1.0 2.0 0.00 0.00 0.00 56 1017.2
20260503021354 49 230 1.0 2.0 0.00 0.00 0.00 56 1017.5
20260503020852 49 230 1.0 1.0 0.00 0.00 0.00 55 1017.2
20260503020350 49 230 1.0 1.0 0.00 0.00 0.00 56 1017.2
20260503015846 49 230 1.0 1.0 0.00 0.00 0.00 56 1017.2
20260503015343 50 230 0.0 1.0 0.00 0.00 0.00 54 1017.2
20260503014838 50 230 1.0 1.0 0.00 0.00 0.00 54 1016.8
20260503014336 50 238 1.0 1.0 0.00 0.00 0.00 53 1017.2
20260503013834 50 238 1.0 1.0 0.00 0.00 0.00 54 1017.2
20260503013331 50 238 1.0 1.0 0.00 0.00 0.00 53 1017.2
20260503012828 50 238 1.0 1.0 0.00 0.00 0.00 53 1017.2
20260503012326 51 238 0.0 1.0 0.00 0.00 0.00 52 1016.8
20260503011822 51 238 1.0 1.0 0.00 0.00 0.00 52 1017.2
20260503011319 51 238 0.0 0.0 0.00 0.00 0.00 52 1017.2
20260503010815 51 238 0.0 0.0 0.00 0.00 0.00 51 1017.2
20260503010313 51 238 0.0 1.0 0.00 0.00 0.00 50 1017.2
20260503005809 52 238 0.0 1.0 0.00 0.00 0.00 49 1016.8
20260503005307 53 238 2.0 2.0 0.00 0.00 0.00 48 1016.8
20260503004803 53 238 2.0 2.0 0.00 0.00 0.00 48 1017.2
20260503004301 53 259 0.0 0.0 0.00 0.00 0.00 47 1017.2
20260503003758 53 258 1.0 1.0 0.00 0.00 0.00 46 1017.2
20260503003255 53 274 3.0 3.0 0.00 0.00 0.00 45 1017.2
20260503002751 53 269 2.0 2.0 0.00 0.00 0.00 44 1017.2
20260503002248 54 284 2.0 2.0 0.00 0.00 0.00 45 1016.8
20260503001744 54 274 4.0 5.0 0.00 0.00 0.00 44 1016.8
20260503001241 54 264 3.0 3.0 0.00 0.00 0.00 44 1017.2
20260503000739 55 268 3.0 3.0 0.00 0.00 0.00 44 1017.2
20260503000236 55 285 5.0 6.0 0.00 0.00 0.00 43 1016.8
20260502235733 55 273 4.0 5.0 0.00 0.00 0.00 43 1017.2
20260502235231 55 245 4.0 6.0 0.00 0.00 0.00 42 1016.8
20260502234727 55 257 7.0 8.0 0.00 0.00 0.00 43 1017.2
20260502234225 56 268 7.0 9.0 0.00 0.00 0.00 43 1017.2
20260502233720 56 275 3.0 6.0 0.00 0.00 0.00 43 1017.2
20260502233217 56 315 3.0 3.0 0.00 0.00 0.00 43 1017.2
20260502232712 55 295 7.0 8.0 0.00 0.00 0.00 43 1017.2
20260502232210 55 262 5.0 6.0 0.00 0.00 0.00 43 1017.2
20260502231707 56 276 5.0 7.0 0.00 0.00 0.00 42 1017.2
20260502231205 56 292 3.0 5.0 0.00 0.00 0.00 42 1017.2
20260502230703 55 292 6.0 8.0 0.00 0.00 0.00 42 1017.2
20260502230201 56 250 5.0 6.0 0.00 0.00 0.00 42 1017.2
20260502225656 55 258 3.0 5.0 0.00 0.00 0.00 42 1017.2
20260502225154 56 344 3.0 3.0 0.00 0.00 0.00 43 1017.2
20260502224650 55 330 5.0 6.0 0.00 0.00 0.00 43 1017.2
20260502224147 55 311 4.0 6.0 0.00 0.00 0.00 43 1017.5
20260502223645 55 287 1.0 2.0 0.00 0.00 0.00 43 1017.5
20260502223143 54 340 3.0 3.0 0.00 0.00 0.00 44 1017.2
20260502222640 54 320 2.0 2.0 0.00 0.00 0.00 44 1017.5
20260502222136 54 307 3.0 3.0 0.00 0.00 0.00 43 1017.5
20260502221632 54 313 3.0 3.0 0.00 0.00 0.00 43 1017.5
20260502221129 54 319 5.0 8.0 0.00 0.00 0.00 44 1017.5
20260502220626 54 324 5.0 6.0 0.00 0.00 0.00 43 1017.5
20260502220122 55 344 4.0 5.0 0.00 0.00 0.00 44 1017.5
20260502215619 55 316 3.0 5.0 0.00 0.00 0.00 44 1017.5
20260502215116 56 342 5.0 6.0 0.00 0.00 0.00 43 1017.8
20260502214613 56 257 4.0 7.0 0.00 0.00 0.00 41 1017.5
20260502214110 55 333 3.0 3.0 0.00 0.00 0.00 43 1017.5
20260502213608 55 299 4.0 5.0 0.00 0.00 0.00 43 1017.5
20260502213105 55 303 6.0 9.0 0.00 0.00 0.00 42 1017.5
20260502212604 54 306 7.0 8.0 0.00 0.00 0.00 43 1017.5
20260502212101 54 308 6.0 8.0 0.00 0.00 0.00 43 1017.5
20260502211556 55 284 5.0 6.0 0.00 0.00 0.00 42 1017.5
20260502211054 56 273 8.0 9.0 0.00 0.00 0.00 42 1017.5
20260502210551 54 330 4.0 6.0 0.00 0.00 0.00 43 1017.5
20260502210048 54 315 5.0 7.0 0.00 0.00 0.00 42 1017.5
20260502205544 55 352 6.0 8.0 0.00 0.00 0.00 41 1017.5
20260502205042 55 307 4.0 7.0 0.00 0.00 0.00 41 1017.8
20260502204538 54 323 5.0 5.0 0.00 0.00 0.00 42 1017.8
20260502204036 53 330 5.0 7.0 0.00 0.00 0.00 42 1018.2
20260502203533 54 342 6.0 8.0 0.00 0.00 0.00 43 1017.5